When you browse on this site, cookies collect data to enhance your experience and personalize the content and advertising you see.
Visit our Privacy Policy to learn more. By continuing to use the site, you agree to this use of cookies and data.
  • In Österreich
  • Länderverzeichnis
  • Für 7 Tage
  • Wassertemperatur
  • Wetterkarte
  • News
  • Widgets
  • user-avatar
    Anmelden

    Stündliche Wetter Doxey

    Heute, 18 Januar, Samstag

    Zeit Temperatur Niederschläge Wind Luftdruck Luftfeuchtigkeit
    00:00 +14°C° 0 mm 1 m/S 596 mmHg 83%
    01:00 +14°C° 0 mm 1 m/S 595 mmHg 85%
    02:00 +13°C° 0 mm 1 m/S 595 mmHg 88%
    03:00 +13°C° 0 mm 1 m/S 595 mmHg 89%
    04:00 +12°C° 0 mm 1 m/S 595 mmHg 90%
    05:00 +12°C° 0 mm 1 m/S 595 mmHg 91%
    06:00 +13°C° 0 mm 1 m/S 595 mmHg 89%
    07:00 +13°C° 0 mm 1 m/S 596 mmHg 87%
    08:00 +14°C° 0 mm 1 m/S 596 mmHg 84%
    09:00 +15°C° 0 mm 1 m/S 597 mmHg 75%
    10:00 +17°C° 0 mm 2 m/S 597 mmHg 67%
    11:00 +19°C° 0 mm 3 m/S 598 mmHg 58%
    12:00 +19°C° 0.1 mm 3 m/S 597 mmHg 54%
    13:00 +20°C° 0.1 mm 4 m/S 597 mmHg 49%
    14:00 +21°C° 0.1 mm 4 m/S 597 mmHg 45%
    15:00 +20°C° 0.1 mm 4 m/S 596 mmHg 51%
    16:00 +19°C° 0.1 mm 4 m/S 596 mmHg 57%
    17:00 +17°C° 0.1 mm 4 m/S 596 mmHg 63%
    18:00 +17°C° 0.2 mm 3 m/S 596 mmHg 68%
    19:00 +16°C° 0.2 mm 2 m/S 596 mmHg 73%
    20:00 +15°C° 0.2 mm 2 m/S 596 mmHg 79%
    21:00 +15°C° 0.1 mm 1 m/S 596 mmHg 81%
    22:00 +14°C° 0.1 mm 1 m/S 596 mmHg 82%
    23:00 +14°C° 0.1 mm 1 m/S 596 mmHg 84%

    Morgen, 19 Januar, Sonntag

    Zeit Temperatur Niederschläge Wind Luftdruck Luftfeuchtigkeit
    00:00 +14°C° 0 mm 1 m/S 596 mmHg 87%
    01:00 +13°C° 0 mm 1 m/S 596 mmHg 90%
    02:00 +13°C° 0 mm 1 m/S 595 mmHg 93%
    03:00 +13°C° 0 mm 1 m/S 595 mmHg 92%
    04:00 +13°C° 0 mm 1 m/S 595 mmHg 92%
    05:00 +13°C° 0 mm 1 m/S 596 mmHg 92%
    06:00 +13°C° 0 mm 1 m/S 596 mmHg 89%
    07:00 +14°C° 0 mm 1 m/S 597 mmHg 87%
    08:00 +14°C° 0 mm 1 m/S 598 mmHg 84%
    09:00 +15°C° 0.3 mm 2 m/S 598 mmHg 81%
    10:00 +14°C° 0.3 mm 3 m/S 598 mmHg 77%
    11:00 +16°C° 0.3 mm 3 m/S 598 mmHg 74%
    12:00 +15°C° 0.1 mm 4 m/S 597 mmHg 73%
    13:00 +15°C° 0.1 mm 4 m/S 597 mmHg 72%
    14:00 +15°C° 0.1 mm 4 m/S 597 mmHg 71%
    15:00 +14°C° 0 mm 4 m/S 597 mmHg 73%
    16:00 +13°C° 0 mm 4 m/S 596 mmHg 76%
    17:00 +13°C° 0 mm 4 m/S 596 mmHg 78%
    18:00 +12°C° 1.6 mm 3 m/S 597 mmHg 82%
    19:00 +13°C° 1.6 mm 2 m/S 597 mmHg 86%
    20:00 +12°C° 1.6 mm 1 m/S 598 mmHg 91%
    21:00 +12°C° 0.7 mm 1 m/S 598 mmHg 90%
    22:00 +12°C° 0.7 mm 1 m/S 598 mmHg 90%
    23:00 +12°C° 0.7 mm 2 m/S 598 mmHg 90%

    übermorgen, 20 Januar, Montag

    Zeit Temperatur Niederschläge Wind Luftdruck Luftfeuchtigkeit
    00:00 +12°C° 0 mm 1 m/S 597 mmHg 91%
    01:00 +12°C° 0 mm 1 m/S 597 mmHg 92%
    02:00 +12°C° 0 mm 1 m/S 597 mmHg 92%
    03:00 +12°C° 0 mm 1 m/S 597 mmHg 93%
    04:00 +11°C° 0 mm 1 m/S 597 mmHg 93%
    05:00 +11°C° 0 mm 1 m/S 597 mmHg 94%
    06:00 +12°C° 0 mm 1 m/S 597 mmHg 90%
    07:00 +12°C° 0 mm 1 m/S 598 mmHg 87%
    08:00 +12°C° 0 mm 1 m/S 599 mmHg 84%
    09:00 +13°C° 0 mm 1 m/S 599 mmHg 78%
    10:00 +14°C° 0 mm 2 m/S 599 mmHg 73%
    11:00 +15°C° 0 mm 2 m/S 599 mmHg 67%
    12:00 +16°C° 0 mm 2 m/S 599 mmHg 65%
    13:00 +17°C° 0 mm 3 m/S 598 mmHg 62%
    14:00 +17°C° 0 mm 3 m/S 598 mmHg 59%
    15:00 +17°C° 0 mm 4 m/S 598 mmHg 61%
    16:00 +15°C° 0 mm 4 m/S 597 mmHg 64%
    17:00 +14°C° 0 mm 4 m/S 597 mmHg 66%
    18:00 +13°C° 0 mm 4 m/S 597 mmHg 72%
    19:00 +12°C° 0 mm 3 m/S 597 mmHg 78%
    20:00 +12°C° 0 mm 2 m/S 597 mmHg 84%
    21:00 +12°C° 0 mm 2 m/S 597 mmHg 85%
    22:00 +12°C° 0 mm 2 m/S 597 mmHg 86%
    23:00 +10°C° 0 mm 2 m/S 597 mmHg 87%

    21 Januar, Dienstag

    Zeit Temperatur Niederschläge Wind Luftdruck Luftfeuchtigkeit
    00:00 +11°C° 0 mm 1 m/S 597 mmHg 86%
    01:00 +11°C° 0 mm 1 m/S 596 mmHg 86%
    02:00 +11°C° 0 mm 1 m/S 596 mmHg 86%
    03:00 +11°C° 0 mm 1 m/S 596 mmHg 88%
    04:00 +10°C° 0 mm 1 m/S 595 mmHg 90%
    05:00 +9°C° 0 mm 0 m/S 594 mmHg 92%
    06:00 +11°C° 0 mm 1 m/S 595 mmHg 86%
    07:00 +12°C° 0 mm 1 m/S 596 mmHg 81%
    08:00 +13°C° 0 mm 1 m/S 597 mmHg 75%
    09:00 +15°C° 0 mm 1 m/S 597 mmHg 67%
    10:00 +18°C° 0 mm 1 m/S 598 mmHg 59%
    11:00 +19°C° 0 mm 1 m/S 598 mmHg 50%
    12:00 +20°C° 0 mm 1 m/S 598 mmHg 47%
    13:00 +21°C° 0 mm 1 m/S 597 mmHg 45%
    14:00 +22°C° 0 mm 1 m/S 596 mmHg 42%
    15:00 +21°C° 0 mm 1 m/S 596 mmHg 48%
    16:00 +19°C° 0 mm 2 m/S 596 mmHg 54%
    17:00 +18°C° 0 mm 2 m/S 595 mmHg 59%
    18:00 +17°C° 0.1 mm 2 m/S 595 mmHg 64%
    19:00 +16°C° 0.1 mm 1 m/S 595 mmHg 69%
    20:00 +15°C° 0.1 mm 1 m/S 595 mmHg 74%
    21:00 +14°C° 0 mm 1 m/S 595 mmHg 76%
    22:00 +14°C° 0 mm 1 m/S 594 mmHg 77%
    23:00 +13°C° 0 mm 1 m/S 594 mmHg 79%

    22 Januar, Mittwoch

    Zeit Temperatur Niederschläge Wind Luftdruck Luftfeuchtigkeit
    00:00 +13°C° 0 mm 1 m/S 594 mmHg 79%
    01:00 +13°C° 0 mm 1 m/S 593 mmHg 78%
    02:00 +13°C° 0 mm 1 m/S 593 mmHg 77%
    03:00 +12°C° 0 mm 1 m/S 593 mmHg 78%
    04:00 +12°C° 0 mm 1 m/S 592 mmHg 79%
    05:00 +11°C° 0 mm 1 m/S 592 mmHg 79%
    06:00 +13°C° 0 mm 1 m/S 593 mmHg 74%
    07:00 +14°C° 0 mm 1 m/S 594 mmHg 69%
    08:00 +15°C° 0 mm 2 m/S 595 mmHg 64%
    09:00 +17°C° 0 mm 2 m/S 595 mmHg 54%
    10:00 +19°C° 0 mm 3 m/S 595 mmHg 45%
    11:00 +21°C° 0 mm 4 m/S 596 mmHg 35%
    12:00 +21°C° 0 mm 5 m/S 595 mmHg 32%
    13:00 +22°C° 0 mm 6 m/S 595 mmHg 28%
    14:00 +23°C° 0 mm 6 m/S 595 mmHg 25%
    15:00 +21°C° 0 mm 6 m/S 594 mmHg 28%
    16:00 +20°C° 0 mm 6 m/S 594 mmHg 32%
    17:00 +19°C° 0 mm 6 m/S 593 mmHg 36%
    18:00 +17°C° 0 mm 5 m/S 593 mmHg 40%
    19:00 +17°C° 0 mm 4 m/S 593 mmHg 44%
    20:00 +16°C° 0 mm 3 m/S 594 mmHg 48%
    21:00 +16°C° 0 mm 2 m/S 594 mmHg 50%
    22:00 +16°C° 0 mm 2 m/S 594 mmHg 52%
    23:00 +15°C° 0 mm 1 m/S 594 mmHg 54%

    23 Januar, Donnerstag

    Zeit Temperatur Niederschläge Wind Luftdruck Luftfeuchtigkeit
    00:00 +15°C° 0 mm 1 m/S 593 mmHg 55%
    01:00 +15°C° 0 mm 1 m/S 593 mmHg 56%
    02:00 +14°C° 0 mm 1 m/S 592 mmHg 57%
    03:00 +14°C° 0 mm 1 m/S 592 mmHg 57%
    04:00 +14°C° 0 mm 1 m/S 592 mmHg 57%
    05:00 +14°C° 0 mm 1 m/S 592 mmHg 57%
    06:00 +14°C° 0 mm 1 m/S 592 mmHg 54%
    07:00 +15°C° 0 mm 2 m/S 593 mmHg 51%
    08:00 +15°C° 0 mm 2 m/S 594 mmHg 48%
    09:00 +17°C° 0 mm 3 m/S 594 mmHg 42%
    10:00 +19°C° 0 mm 3 m/S 594 mmHg 36%
    11:00 +20°C° 0 mm 4 m/S 595 mmHg 30%
    12:00 +21°C° 0 mm 5 m/S 594 mmHg 28%
    13:00 +22°C° 0 mm 5 m/S 594 mmHg 27%
    14:00 +23°C° 0 mm 6 m/S 594 mmHg 25%
    15:00 +22°C° 0 mm 5 m/S 593 mmHg 28%
    16:00 +21°C° 0 mm 5 m/S 593 mmHg 32%
    17:00 +19°C° 0 mm 5 m/S 593 mmHg 35%
    18:00 +18°C° 0 mm 4 m/S 593 mmHg 41%
    19:00 +16°C° 0 mm 3 m/S 593 mmHg 46%
    20:00 +15°C° 0 mm 2 m/S 593 mmHg 52%
    21:00 +14°C° 0 mm 2 m/S 592 mmHg 55%
    22:00 +14°C° 0 mm 2 m/S 592 mmHg 58%
    23:00 +13°C° 0 mm 1 m/S 592 mmHg 61%
    Mehr zeigen